User: anonymous   Login
Location: Unspecified
(0.0000°N, 0.0000°E)
Time: 10:10:13
(UTC+00:00)
Language:

MetOp-B - Orbit

View from above orbital plane
View from above orbital plane
View from above satellite
View from above satellite

Ground track
Ground track

The orbit data is extracted from the following two-line orbital elements,

1 38771U 12049A   20219.82548095 -.00000004 +00000-0 +18249-4 0  9990
2 38771 098.6881 278.3550 0001042 151.2487 318.6432 14.21501615409188
Epoch (UTC): 06 August 2020 19:48:41
Eccentricity: 0.0001042
inclination: 98.6881°
perigee height: 819 km
apogee height: 821 km
right ascension of ascending node: 278.3550°
argument of perigee: 151.2487°
revolutions per day: 14.21501615
mean anomaly at epoch: 318.6432°
orbit number at epoch: 40918

The dashed part of the orbit path shows where the satellite is in the earth's shadow,  

DLR